Time,TemperatureF,DewpointF,PressureIn,WindDirection,WindDirectionDegrees,WindSpeedMPH,WindSpeedGustMPH,Humidity,HourlyPrecipIn,Conditions,Clouds,dailyrainin,SoftwareType,DateUTC
2013-07-26 00:02:00,66.0,58.0,30.05,ESE,121,0.0,1.0,75,0.00,,,0.00,,2013-07-26 04:02:00,
2013-07-26 00:23:00,66.0,57.0,30.05,ESE,121,0.0,2.0,74,0.00,,,0.00,,2013-07-26 04:23:00,
2013-07-26 00:32:00,66.0,57.0,30.05,ESE,121,0.0,0.0,74,0.00,,,0.00,,2013-07-26 04:32:00,
2013-07-26 00:42:00,66.0,57.0,30.05,ESE,121,0.0,0.0,74,0.00,,,0.00,,2013-07-26 04:42:00,
2013-07-26 00:53:00,66.0,57.0,30.05,ESE,121,0.0,0.0,74,0.00,,,0.00,,2013-07-26 04:53:00,
2013-07-26 01:02:00,65.0,57.0,30.06,ESE,121,0.0,0.0,76,0.00,,,0.00,,2013-07-26 05:02:00,
2013-07-26 01:22:00,64.0,57.0,30.06,ESE,121,0.0,0.0,77,0.00,,,0.00,,2013-07-26 05:22:00,
2013-07-26 01:32:00,64.0,57.0,30.06,ESE,121,0.0,0.0,79,0.00,,,0.00,,2013-07-26 05:32:00,
2013-07-26 01:43:00,63.0,56.0,30.05,ESE,121,0.0,0.0,79,0.00,,,0.00,,2013-07-26 05:43:00,
2013-07-26 01:52:00,63.0,56.0,30.05,ESE,121,0.0,0.0,79,0.00,,,0.00,,2013-07-26 05:52:00,
2013-07-26 02:02:00,63.0,56.0,30.05,ESE,120,0.0,2.0,79,0.00,,,0.00,,2013-07-26 06:02:00,
2013-07-26 02:12:00,63.0,56.0,30.05,ESE,120,0.0,2.0,79,0.00,,,0.00,,2013-07-26 06:12:00,
2013-07-26 02:22:00,63.0,56.0,30.04,ESE,120,0.0,1.0,78,0.00,,,0.00,,2013-07-26 06:22:00,
2013-07-26 02:33:00,63.0,57.0,30.04,ESE,120,0.0,1.0,81,0.00,,,0.00,,2013-07-26 06:33:00,
2013-07-26 02:43:00,62.0,56.0,30.04,ESE,114,0.0,2.0,82,0.00,,,0.00,,2013-07-26 06:43:00,
2013-07-26 02:52:00,62.0,56.0,30.04,ESE,114,0.0,2.0,82,0.00,,,0.00,,2013-07-26 06:52:00,
2013-07-26 03:02:00,62.0,56.0,30.05,ESE,114,0.0,0.0,82,0.00,,,0.00,,2013-07-26 07:02:00,
2013-07-26 03:12:00,62.0,56.0,30.04,ESE,114,0.0,1.0,82,0.00,,,0.00,,2013-07-26 07:12:00,
2013-07-26 03:22:00,62.0,56.0,30.04,ESE,114,0.0,1.0,82,0.00,,,0.00,,2013-07-26 07:22:00,
2013-07-26 03:32:00,61.0,56.0,30.03,NE,42,0.0,3.0,83,0.00,,,0.00,,2013-07-26 07:32:00,
2013-07-26 03:43:00,61.0,56.0,30.03,NE,42,0.0,1.0,83,0.00,,,0.00,,2013-07-26 07:43:00,
2013-07-26 03:53:00,61.0,56.0,30.03,NE,42,0.0,1.0,83,0.00,,,0.00,,2013-07-26 07:53:00,
2013-07-26 04:02:00,61.0,55.0,30.03,NE,42,0.0,1.0,82,0.00,,,0.00,,2013-07-26 08:02:00,
2013-07-26 04:12:00,61.0,55.0,30.02,SSE,157,0.0,1.0,81,0.00,,,0.00,,2013-07-26 08:12:00,
2013-07-26 04:22:00,61.0,55.0,30.02,SSE,157,0.0,1.0,81,0.00,,,0.00,,2013-07-26 08:22:00,
2013-07-26 04:32:00,61.0,55.0,30.02,ENE,74,0.0,2.0,80,0.00,,,0.00,,2013-07-26 08:32:00,
2013-07-26 04:52:00,62.0,56.0,30.03,ENE,74,0.0,0.0,80,0.00,,,0.00,,2013-07-26 08:52:00,
2013-07-26 05:02:00,61.0,55.0,30.03,ENE,74,0.0,0.0,81,0.00,,,0.00,,2013-07-26 09:02:00,
2013-07-26 05:12:00,61.0,55.0,30.03,East,82,0.0,0.0,81,0.00,,,0.00,,2013-07-26 09:12:00,
2013-07-26 05:22:00,61.0,55.0,30.03,East,82,0.0,0.0,81,0.00,,,0.00,,2013-07-26 09:22:00,
2013-07-26 05:32:00,60.0,55.0,30.03,East,82,0.0,0.0,83,0.00,,,0.00,,2013-07-26 09:32:00,
2013-07-26 05:52:00,60.0,55.0,30.02,East,82,0.0,0.0,83,0.00,,,0.00,,2013-07-26 09:52:00,
2013-07-26 06:02:00,60.0,55.0,30.02,East,82,0.0,1.0,83,0.00,,,0.00,,2013-07-26 10:02:00,
2013-07-26 06:12:00,60.0,55.0,30.02,East,82,0.0,1.0,83,0.00,,,0.00,,2013-07-26 10:12:00,
2013-07-26 06:22:00,59.0,54.0,30.02,East,82,0.0,0.0,85,0.00,,,0.00,,2013-07-26 10:22:00,
2013-07-26 06:42:00,58.0,54.0,30.01,East,82,0.0,0.0,86,0.00,,,0.00,,2013-07-26 10:42:00,
2013-07-26 06:53:00,58.0,54.0,30.02,East,82,0.0,0.0,87,0.00,,,0.00,,2013-07-26 10:53:00,
2013-07-26 07:02:00,58.0,54.0,30.02,East,82,0.0,0.0,87,0.00,,,0.00,,2013-07-26 11:02:00,
2013-07-26 07:12:00,58.0,54.0,30.03,East,82,0.0,0.0,87,0.00,,,0.00,,2013-07-26 11:12:00,
2013-07-26 07:22:00,58.0,54.0,30.03,East,82,0.0,0.0,87,0.00,,,0.00,,2013-07-26 11:22:00,
2013-07-26 07:43:00,59.0,55.0,30.03,WNW,295,0.0,0.0,87,0.00,,,0.00,,2013-07-26 11:43:00,
2013-07-26 07:52:00,60.0,56.0,30.04,WNW,294,0.0,5.0,86,0.00,,,0.00,,2013-07-26 11:52:00,
2013-07-26 08:02:00,60.0,56.0,30.04,WNW,294,0.0,5.0,86,0.00,,,0.00,,2013-07-26 12:02:00,
2013-07-26 08:12:00,61.0,56.0,30.03,WNW,294,0.0,1.0,84,0.00,,,0.00,,2013-07-26 12:12:00,
2013-07-26 08:22:00,62.0,58.0,30.03,WNW,293,1.0,6.0,87,0.00,,,0.00,,2013-07-26 12:22:00,
2013-07-26 08:33:00,62.0,58.0,30.03,WNW,293,1.0,6.0,87,0.00,,,0.00,,2013-07-26 12:33:00,
2013-07-26 08:43:00,62.0,58.0,30.04,WNW,293,0.0,2.0,87,0.00,,,0.00,,2013-07-26 12:43:00,
2013-07-26 08:53:00,62.0,57.0,30.04,WNW,293,0.0,1.0,85,0.00,,,0.00,,2013-07-26 12:53:00,
2013-07-26 09:12:00,64.0,58.0,30.04,WNW,291,0.0,1.0,80,0.00,,,0.00,,2013-07-26 13:12:00,
2013-07-26 09:32:00,65.0,58.0,30.04,South,187,1.0,5.0,78,0.00,,,0.00,,2013-07-26 13:32:00,
2013-07-26 09:43:00,67.0,60.0,30.03,SSE,160,0.0,5.0,78,0.00,,,0.00,,2013-07-26 13:43:00,
2013-07-26 10:02:00,68.0,60.0,30.04,SSW,209,1.0,4.0,75,0.00,,,0.00,,2013-07-26 14:02:00,
2013-07-26 10:12:00,69.0,60.0,30.03,SSW,196,0.0,3.0,74,0.00,,,0.00,,2013-07-26 14:12:00,
2013-07-26 10:43:00,71.0,61.0,30.03,SSE,149,1.0,4.0,71,0.00,,,0.00,,2013-07-26 14:43:00,
2013-07-26 10:53:00,73.0,61.0,30.03,South,189,1.0,3.0,66,0.00,,,0.00,,2013-07-26 14:53:00,
2013-07-26 11:02:00,73.0,61.0,30.03,South,189,1.0,3.0,66,0.00,,,0.00,,2013-07-26 15:02:00,
2013-07-26 11:12:00,74.0,60.0,30.03,SSE,160,1.0,5.0,62,0.00,,,0.00,,2013-07-26 15:12:00,
2013-07-26 11:22:00,74.0,60.0,30.03,WSW,240,0.0,4.0,61,0.00,,,0.00,,2013-07-26 15:22:00,
2013-07-26 11:43:00,74.0,59.0,30.03,SSW,210,1.0,5.0,59,0.00,,,0.00,,2013-07-26 15:43:00,
2013-07-26 11:53:00,75.0,60.0,30.03,South,188,1.0,6.0,59,0.00,,,0.00,,2013-07-26 15:53:00,
2013-07-26 12:02:00,75.0,60.0,30.03,South,188,1.0,6.0,59,0.00,,,0.00,,2013-07-26 16:02:00,
2013-07-26 12:14:00,75.0,58.0,30.03,WSW,257,1.0,6.0,56,0.00,,,0.00,,2013-07-26 16:14:00,
2013-07-26 12:32:00,76.0,60.0,30.02,South,182,0.0,8.0,58,0.00,,,0.00,,2013-07-26 16:32:00,
2013-07-26 12:43:00,76.0,60.0,30.02,SSW,199,1.0,5.0,57,0.00,,,0.00,,2013-07-26 16:43:00,
2013-07-26 12:54:00,77.0,57.0,30.02,South,180,2.0,7.0,51,0.00,,,0.00,,2013-07-26 16:54:00,
2013-07-26 13:12:00,76.0,59.0,30.01,SW,234,1.0,8.0,56,0.00,,,0.00,,2013-07-26 17:12:00,
2013-07-26 13:22:00,77.0,59.0,30.00,South,171,2.0,7.0,54,0.00,,,0.00,,2013-07-26 17:22:00,
2013-07-26 13:33:00,77.0,59.0,30.00,South,171,2.0,7.0,54,0.00,,,0.00,,2013-07-26 17:33:00,
2013-07-26 13:43:00,79.0,59.0,30.00,WSW,256,2.0,5.0,51,0.00,,,0.00,,2013-07-26 17:43:00,
2013-07-26 13:53:00,78.0,58.0,29.99,South,178,1.0,8.0,50,0.00,,,0.00,,2013-07-26 17:53:00,
2013-07-26 14:03:00,78.0,58.0,29.99,South,178,1.0,8.0,50,0.00,,,0.00,,2013-07-26 18:03:00,
2013-07-26 14:12:00,78.0,58.0,29.99,South,178,2.0,8.0,51,0.00,,,0.00,,2013-07-26 18:12:00,
2013-07-26 14:23:00,78.0,59.0,29.98,SSE,166,1.0,8.0,53,0.00,,,0.00,,2013-07-26 18:23:00,
2013-07-26 14:33:00,78.0,59.0,29.98,SSE,166,1.0,8.0,53,0.00,,,0.00,,2013-07-26 18:33:00,
2013-07-26 14:44:00,78.0,60.0,29.98,SW,217,2.0,7.0,54,0.00,,,0.00,,2013-07-26 18:44:00,
2013-07-26 14:52:00,78.0,59.0,29.98,WSW,246,2.0,7.0,53,0.00,,,0.00,,2013-07-26 18:52:00,
2013-07-26 15:03:00,78.0,59.0,29.98,WSW,246,2.0,7.0,53,0.00,,,0.00,,2013-07-26 19:03:00,
2013-07-26 15:12:00,78.0,60.0,29.97,SW,217,2.0,9.0,54,0.00,,,0.00,,2013-07-26 19:12:00,
2013-07-26 15:22:00,77.0,60.0,29.97,South,172,2.0,6.0,55,0.00,,,0.00,,2013-07-26 19:22:00,
2013-07-26 15:32:00,77.0,60.0,29.97,South,172,2.0,6.0,55,0.00,,,0.00,,2013-07-26 19:32:00,
2013-07-26 15:43:00,77.0,61.0,29.96,SW,232,0.0,6.0,57,0.00,,,0.00,,2013-07-26 19:43:00,
2013-07-26 15:52:00,78.0,62.0,29.96,SSW,194,0.0,5.0,57,0.00,,,0.00,,2013-07-26 19:52:00,
2013-07-26 16:02:00,78.0,62.0,29.96,SSW,194,0.0,5.0,57,0.00,,,0.00,,2013-07-26 20:02:00,
2013-07-26 16:12:00,79.0,61.0,29.95,South,189,2.0,6.0,54,0.00,,,0.00,,2013-07-26 20:12:00,
2013-07-26 16:22:00,80.0,59.0,29.94,South,188,1.0,9.0,49,0.00,,,0.00,,2013-07-26 20:22:00,
2013-07-26 16:32:00,80.0,59.0,29.94,South,188,1.0,9.0,49,0.00,,,0.00,,2013-07-26 20:32:00,
2013-07-26 16:43:00,79.0,60.0,29.93,South,186,2.0,7.0,52,0.00,,,0.00,,2013-07-26 20:43:00,
2013-07-26 16:53:00,81.0,60.0,29.93,WSW,241,1.0,6.0,49,0.00,,,0.00,,2013-07-26 20:53:00,
2013-07-26 17:02:00,81.0,60.0,29.93,WSW,241,1.0,6.0,49,0.00,,,0.00,,2013-07-26 21:02:00,
2013-07-26 17:12:00,80.0,60.0,29.93,ESE,119,2.0,6.0,51,0.00,,,0.00,,2013-07-26 21:12:00,
2013-07-26 17:22:00,80.0,60.0,29.93,West,264,2.0,7.0,51,0.00,,,0.00,,2013-07-26 21:22:00,
2013-07-26 17:43:00,81.0,61.0,29.92,SSW,194,2.0,7.0,50,0.00,,,0.00,,2013-07-26 21:43:00,
2013-07-26 17:53:00,81.0,59.0,29.92,West,261,3.0,11.0,47,0.00,,,0.00,,2013-07-26 21:53:00,
2013-07-26 18:02:00,81.0,59.0,29.92,West,261,3.0,11.0,47,0.00,,,0.00,,2013-07-26 22:02:00,
2013-07-26 18:12:00,80.0,59.0,29.91,WSW,257,2.0,7.0,49,0.00,,,0.00,,2013-07-26 22:12:00,
2013-07-26 18:22:00,79.0,60.0,29.91,WSW,249,1.0,6.0,52,0.00,,,0.00,,2013-07-26 22:22:00,
2013-07-26 18:43:00,78.0,60.0,29.91,WSW,248,1.0,5.0,54,0.00,,,0.00,,2013-07-26 22:43:00,
2013-07-26 18:53:00,78.0,61.0,29.91,WSW,254,0.0,3.0,56,0.00,,,0.00,,2013-07-26 22:53:00,
2013-07-26 19:02:00,78.0,61.0,29.91,WSW,254,0.0,3.0,56,0.00,,,0.00,,2013-07-26 23:02:00,
2013-07-26 19:12:00,78.0,61.0,29.91,WSW,246,0.0,3.0,56,0.00,,,0.00,,2013-07-26 23:12:00,
2013-07-26 19:22:00,78.0,61.0,29.90,SSW,211,0.0,4.0,56,0.00,,,0.00,,2013-07-26 23:22:00,
2013-07-26 19:32:00,78.0,61.0,29.90,WSW,250,0.0,3.0,56,0.00,,,0.00,,2013-07-26 23:32:00,
2013-07-26 19:43:00,78.0,61.0,29.90,WSW,250,0.0,3.0,56,0.00,,,0.00,,2013-07-26 23:43:00,
2013-07-26 19:53:00,78.0,61.0,29.90,WSW,250,0.0,3.0,56,0.00,,,0.00,,2013-07-26 23:53:00,
2013-07-26 20:02:00,78.0,62.0,29.90,SW,233,0.0,3.0,57,0.00,,,0.00,,2013-07-27 00:02:00,
2013-07-26 20:12:00,77.0,61.0,29.89,SW,236,0.0,3.0,58,0.00,,,0.00,,2013-07-27 00:12:00,
2013-07-26 20:22:00,77.0,61.0,29.89,SW,236,0.0,3.0,58,0.00,,,0.00,,2013-07-27 00:22:00,
2013-07-26 20:32:00,77.0,63.0,29.89,SSW,194,0.0,3.0,61,0.00,,,0.00,,2013-07-27 00:32:00,
2013-07-26 20:43:00,76.0,62.0,29.89,SSW,202,0.0,3.0,63,0.00,,,0.00,,2013-07-27 00:43:00,
2013-07-26 20:53:00,76.0,62.0,29.89,SSW,202,0.0,3.0,63,0.00,,,0.00,,2013-07-27 00:53:00,
2013-07-26 21:02:00,75.0,63.0,29.89,WSW,238,0.0,4.0,66,0.00,,,0.00,,2013-07-27 01:02:00,
2013-07-26 21:12:00,75.0,63.0,29.89,South,186,0.0,4.0,66,0.00,,,0.00,,2013-07-27 01:12:00,
2013-07-26 21:22:00,74.0,63.0,29.89,WSW,246,0.0,5.0,68,0.00,,,0.00,,2013-07-27 01:22:00,
2013-07-26 21:32:00,74.0,63.0,29.89,WSW,246,0.0,5.0,68,0.00,,,0.00,,2013-07-27 01:32:00,
2013-07-26 21:43:00,74.0,63.0,29.89,WSW,246,0.0,5.0,68,0.00,,,0.00,,2013-07-27 01:43:00,
2013-07-26 21:53:00,73.0,62.0,29.89,SW,226,0.0,3.0,69,0.00,,,0.00,,2013-07-27 01:53:00,
2013-07-26 22:02:00,73.0,62.0,29.89,SW,226,0.0,3.0,69,0.00,,,0.00,,2013-07-27 02:02:00,
2013-07-26 22:12:00,72.0,62.0,29.89,WSW,244,0.0,2.0,72,0.00,,,0.00,,2013-07-27 02:12:00,
2013-07-26 22:22:00,72.0,62.0,29.89,West,269,0.0,4.0,72,0.00,,,0.00,,2013-07-27 02:22:00,
2013-07-26 22:32:00,72.0,62.0,29.89,West,269,0.0,4.0,72,0.00,,,0.00,,2013-07-27 02:32:00,
2013-07-26 22:43:00,72.0,63.0,29.89,West,265,0.0,2.0,73,0.00,,,0.00,,2013-07-27 02:43:00,
2013-07-26 22:53:00,72.0,63.0,29.89,West,265,0.0,2.0,73,0.00,,,0.00,,2013-07-27 02:53:00,
2013-07-26 23:03:00,72.0,63.0,29.89,WSW,241,0.0,3.0,73,0.00,,,0.00,,2013-07-27 03:03:00,
2013-07-26 23:12:00,72.0,63.0,29.88,West,261,0.0,5.0,73,0.00,,,0.00,,2013-07-27 03:12:00,
2013-07-26 23:22:00,72.0,63.0,29.88,West,261,0.0,5.0,73,0.00,,,0.00,,2013-07-27 03:22:00,
2013-07-26 23:33:00,72.0,65.0,29.88,WNW,294,0.0,4.0,78,0.00,,,0.00,,2013-07-27 03:33:00,
2013-07-26 23:44:00,70.0,62.0,29.87,WSW,252,1.0,4.0,76,0.00,,,0.00,,2013-07-27 03:44:00,